| time (UTC) | temp F | wind direction | speed MPH | gust MPH | rain 1hr in | rain 24hr in | rain mn in | humidity % | barometer mb |
| 20260904160315 | 86 | 74 | 3.0 | 6.0 | 0.00 | 0.00 | 0.00 | 72 | 1018.7 |
| 20260904160052 | 85 | 106 | 1.0 | 7.0 | 0.00 | 0.00 | 0.00 | 74 | 1017.7 |
| 20260904155547 | 85 | 101 | 3.0 | 7.0 | 0.00 | 0.00 | 0.00 | 73 | 1017.7 |
| 20260904155045 | 85 | 36 | 2.0 | 9.0 | 0.00 | 0.00 | 0.00 | 74 | 1017.7 |
| 20260904154822 | 85 | 315 | 3.0 | 9.0 | 0.00 | 0.00 | 0.00 | 74 | 1018.6 |
| 20260904154546 | 85 | 49 | 2.0 | 9.0 | 0.00 | 0.00 | 0.00 | 73 | 1017.7 |
| 20260904154050 | 85 | 56 | 3.0 | 8.0 | 0.00 | 0.00 | 0.00 | 74 | 1017.6 |
| 20260904153554 | 85 | 93 | 1.0 | 8.0 | 0.00 | 0.00 | 0.00 | 74 | 1017.6 |
| 20260904153323 | 86 | 15 | 3.0 | 8.0 | 0.00 | 0.00 | 0.00 | 73 | 1018.7 |
| 20260904153059 | 85 | 36 | 2.0 | 8.0 | 0.00 | 0.00 | 0.00 | 73 | 1017.7 |
| 20260904152555 | 85 | 124 | 4.0 | 8.0 | 0.00 | 0.00 | 0.00 | 73 | 1017.6 |
| 20260904152056 | 85 | 117 | 2.0 | 7.0 | 0.00 | 0.00 | 0.00 | 73 | 1017.6 |
| 20260904151822 | 85 | 184 | 1.0 | 6.0 | 0.00 | 0.00 | 0.00 | 74 | 1018.5 |
| 20260904151553 | 85 | 111 | 3.0 | 6.0 | 0.00 | 0.00 | 0.00 | 75 | 1017.3 |
| 20260904151055 | 84 | 38 | 2.0 | 5.0 | 0.00 | 0.00 | 0.00 | 76 | 1017.5 |
| 20260904150601 | 83 | 65 | 1.0 | 6.0 | 0.00 | 0.00 | 0.00 | 78 | 1017.4 |
| 20260904150505 | 83 | 105 | 1.0 | 6.0 | 0.00 | 0.00 | 0.00 | 77 | 1017.5 |
| 20260904150324 | 83 | 96 | 2.0 | 6.0 | 0.00 | 0.00 | 0.00 | 77 | 1018.5 |
| 20260904150058 | 83 | 85 | 2.0 | 6.0 | 0.00 | 0.00 | 0.00 | 77 | 1017.4 |
| 20260904150003 | 83 | 81 | 2.0 | 6.0 | 0.00 | 0.00 | 0.00 | 76 | 1017.4 |
| 20260904145601 | 83 | 51 | 2.0 | 5.0 | 0.00 | 0.00 | 0.00 | 76 | 1017.4 |
| 20260904145502 | 83 | 68 | 2.0 | 5.0 | 0.00 | 0.00 | 0.00 | 75 | 1017.4 |
| 20260904145058 | 84 | 51 | 3.0 | 5.0 | 0.00 | 0.00 | 0.00 | 75 | 1017.4 |
| 20260904144828 | 85 | 39 | 3.0 | 7.0 | 0.00 | 0.00 | 0.00 | 75 | 1018.4 |
| 20260904144554 | 84 | 25 | 2.0 | 7.0 | 0.00 | 0.00 | 0.00 | 74 | 1017.3 |
| 20260904144052 | 85 | 46 | 2.0 | 8.0 | 0.00 | 0.00 | 0.00 | 75 | 1017.2 |
| 20260904143546 | 84 | 46 | 2.0 | 8.0 | 0.00 | 0.00 | 0.00 | 76 | 1017.1 |
| 20260904143341 | 84 | 108 | 2.0 | 7.0 | 0.00 | 0.00 | 0.00 | 78 | 1018.0 |
| 20260904143032 | 84 | 332 | 2.0 | 6.0 | 0.00 | 0.00 | 0.00 | 77 | 1017.0 |
| 20260904142517 | 84 | 53 | 1.0 | 7.0 | 0.00 | 0.00 | 0.00 | 75 | 1017.0 |
| 20260904142015 | 85 | 336 | 2.0 | 7.0 | 0.00 | 0.00 | 0.00 | 75 | 1017.0 |
| 20260904141815 | 85 | 144 | 2.0 | 6.0 | 0.00 | 0.00 | 0.00 | 75 | 1017.9 |
| 20260904141508 | 84 | 101 | 2.0 | 6.0 | 0.00 | 0.00 | 0.00 | 76 | 1016.9 |
| 20260904141003 | 84 | 170 | 3.0 | 8.0 | 0.00 | 0.00 | 0.00 | 78 | 1016.9 |
| 20260904140600 | 83 | 156 | 1.0 | 8.0 | 0.00 | 0.00 | 0.00 | 78 | 1016.9 |
| 20260904140502 | 83 | 78 | 1.0 | 8.0 | 0.00 | 0.00 | 0.00 | 77 | 1016.9 |
| 20260904140328 | 84 | 282 | 3.0 | 8.0 | 0.00 | 0.00 | 0.00 | 77 | 1018.0 |
| 20260904140107 | 83 | 82 | 3.0 | 7.0 | 0.00 | 0.00 | 0.00 | 77 | 1017.0 |
| 20260904135554 | 83 | 90 | 2.0 | 8.0 | 0.00 | 0.00 | 0.00 | 77 | 1017.0 |
| 20260904135046 | 82 | 165 | 4.0 | 8.0 | 0.00 | 0.00 | 0.00 | 79 | 1016.9 |
| 20260904134836 | 83 | 103 | 5.0 | 8.0 | 0.00 | 0.00 | 0.00 | 79 | 1017.9 |
| 20260904134520 | 81 | 143 | 1.0 | 6.0 | 0.00 | 0.00 | 0.00 | 82 | 1016.8 |
| 20260904134017 | 80 | 159 | 2.0 | 6.0 | 0.00 | 0.00 | 0.00 | 82 | 1016.9 |
| 20260904133514 | 80 | 105 | 1.0 | 4.0 | 0.00 | 0.00 | 0.00 | 84 | 1016.9 |
| 20260904133322 | 80 | 96 | 1.0 | 3.0 | 0.00 | 0.00 | 0.00 | 85 | 1017.9 |
| 20260904133012 | 79 | 45 | 1.0 | 6.0 | 0.00 | 0.00 | 0.00 | 85 | 1016.9 |
| 20260904132508 | 79 | 360 | 2.0 | 8.0 | 0.00 | 0.00 | 0.00 | 84 | 1016.9 |
| 20260904132004 | 80 | 28 | 3.0 | 9.0 | 0.00 | 0.00 | 0.00 | 83 | 1016.9 |
| 20260904131814 | 80 | 63 | 2.0 | 9.0 | 0.00 | 0.00 | 0.00 | 83 | 1017.9 |
| 20260904131600 | 80 | 44 | 4.0 | 9.0 | 0.00 | 0.00 | 0.00 | 83 | 1016.9 |
| 20260904131055 | 80 | 41 | 1.0 | 5.0 | 0.00 | 0.00 | 0.00 | 84 | 1017.0 |
| 20260904130552 | 80 | 10 | 2.0 | 5.0 | 0.00 | 0.00 | 0.00 | 84 | 1016.9 |
| 20260904130352 | 80 | 44 | 3.0 | 6.0 | 0.00 | 0.00 | 0.00 | 84 | 1017.8 |
| 20260904130030 | 79 | 66 | 2.0 | 6.0 | 0.00 | 0.00 | 0.00 | 84 | 1016.9 |
| 20260904125527 | 79 | 123 | 0.0 | 5.0 | 0.00 | 0.00 | 0.00 | 86 | 1016.8 |
| 20260904125023 | 79 | 42 | 2.0 | 5.0 | 0.00 | 0.00 | 0.00 | 85 | 1016.7 |
| 20260904124822 | 79 | 80 | 2.0 | 5.0 | 0.00 | 0.00 | 0.00 | 86 | 1017.7 |
| 20260904124518 | 79 | 65 | 2.0 | 5.0 | 0.00 | 0.00 | 0.00 | 86 | 1016.7 |
| 20260904124013 | 78 | 34 | 1.0 | 4.0 | 0.00 | 0.00 | 0.00 | 87 | 1016.7 |
| 20260904123511 | 78 | 58 | 2.0 | 3.0 | 0.00 | 0.00 | 0.00 | 88 | 1016.7 |
| 20260904123315 | 78 | 76 | 1.0 | 3.0 | 0.00 | 0.00 | 0.00 | 89 | 1017.6 |
| 20260904123008 | 78 | 49 | 1.0 | 3.0 | 0.00 | 0.00 | 0.00 | 90 | 1016.6 |
| 20260904122504 | 77 | 355 | 0.0 | 4.0 | 0.00 | 0.00 | 0.00 | 91 | 1016.7 |
| 20260904122053 | 77 | 38 | 1.0 | 6.0 | 0.00 | 0.00 | 0.00 | 91 | 1016.6 |
| 20260904121846 | 77 | 43 | 2.0 | 6.0 | 0.00 | 0.00 | 0.00 | 91 | 1017.5 |
| 20260904121527 | 76 | 45 | 2.0 | 5.0 | 0.00 | 0.00 | 0.00 | 91 | 1016.6 |
| 20260904121029 | 76 | 38 | 1.0 | 2.0 | 0.00 | 0.00 | 0.00 | 91 | 1016.7 |
| 20260904120518 | 76 | 36 | 1.0 | 3.0 | 0.00 | 0.00 | 0.00 | 92 | 1016.7 |
| 20260904120338 | 77 | 35 | 1.0 | 3.0 | 0.00 | 0.00 | 0.00 | 92 | 1017.6 |
| 20260904120054 | 76 | 62 | 0.0 | 3.0 | 0.00 | 0.00 | 0.00 | 92 | 1016.8 |
| 20260904115553 | 76 | 59 | 1.0 | 3.0 | 0.00 | 0.00 | 0.00 | 92 | 1016.9 |
| 20260904115047 | 76 | 33 | 1.0 | 3.0 | 0.00 | 0.00 | 0.00 | 92 | 1016.8 |
| 20260904114829 | 76 | 96 | 1.0 | 3.0 | 0.00 | 0.00 | 0.00 | 92 | 1017.7 |
| 20260904114544 | 76 | 43 | 0.0 | 3.0 | 0.00 | 0.00 | 0.00 | 92 | 1016.7 |
| 20260904114039 | 76 | 36 | 0.0 | 3.0 | 0.00 | 0.00 | 0.00 | 92 | 1016.6 |
| 20260904113536 | 76 | 69 | 1.0 | 3.0 | 0.00 | 0.00 | 0.00 | 91 | 1016.5 |
| 20260904113351 | 76 | 46 | 1.0 | 3.0 | 0.00 | 0.00 | 0.00 | 91 | 1017.5 |
| 20260904113011 | 76 | 87 | 0.0 | 3.0 | 0.00 | 0.00 | 0.00 | 91 | 1016.4 |
| 20260904112507 | 76 | 71 | 0.0 | 2.0 | 0.00 | 0.00 | 0.00 | 91 | 1016.4 |
| 20260904112005 | 76 | 80 | 0.0 | 2.0 | 0.00 | 0.00 | 0.00 | 91 | 1016.4 |
| 20260904111824 | 76 | 96 | 1.0 | 2.0 | 0.00 | 0.00 | 0.00 | 91 | 1017.3 |
| 20260904111559 | 76 | 88 | 0.0 | 2.0 | 0.00 | 0.00 | 0.00 | 91 | 1016.3 |
| 20260904111501 | 76 | 88 | 0.0 | 2.0 | 0.00 | 0.00 | 0.00 | 91 | 1016.4 |
| 20260904111055 | 76 | 67 | 0.0 | 2.0 | 0.00 | 0.00 | 0.00 | 91 | 1016.3 |
| 20260904110553 | 76 | 67 | 0.0 | 2.0 | 0.00 | 0.00 | 0.00 | 91 | 1016.2 |
| 20260904110318 | 76 | 67 | 1.0 | 2.0 | 0.00 | 0.00 | 0.00 | 91 | 1017.2 |
| 20260904110049 | 76 | 112 | 0.0 | 2.0 | 0.00 | 0.00 | 0.00 | 91 | 1016.2 |
| 20260904105545 | 76 | 112 | 0.0 | 1.0 | 0.00 | 0.00 | 0.00 | 91 | 1016.3 |
| 20260904105039 | 76 | 112 | 0.0 | 0.0 | 0.00 | 0.00 | 0.00 | 91 | 1016.3 |
| 20260904104829 | 77 | 112 | 0.0 | 0.0 | 0.00 | 0.00 | 0.00 | 91 | 1017.3 |
| 20260904104538 | 76 | 112 | 0.0 | 0.0 | 0.00 | 0.00 | 0.00 | 90 | 1016.3 |
| 20260904104036 | 76 | 112 | 0.0 | 0.0 | 0.00 | 0.00 | 0.00 | 90 | 1016.4 |
| 20260904103529 | 76 | 112 | 0.0 | 1.0 | 0.00 | 0.00 | 0.00 | 90 | 1016.4 |
| 20260904103322 | 77 | 112 | 0.0 | 1.0 | 0.00 | 0.00 | 0.00 | 90 | 1017.3 |
| 20260904103058 | 76 | 112 | 0.0 | 1.0 | 0.00 | 0.00 | 0.00 | 90 | 1016.3 |
| 20260904102559 | 76 | 112 | 0.0 | 2.0 | 0.00 | 0.00 | 0.00 | 90 | 1016.2 |
| 20260904102053 | 76 | 112 | 0.0 | 2.0 | 0.00 | 0.00 | 0.00 | 90 | 1016.3 |
| 20260904101815 | 77 | 112 | 1.0 | 2.0 | 0.00 | 0.00 | 0.00 | 90 | 1017.3 |
| 20260904101548 | 76 | 112 | 0.0 | 2.0 | 0.00 | 0.00 | 0.00 | 90 | 1016.4 |
| 20260904101043 | 77 | 112 | 0.0 | 2.0 | 0.00 | 0.00 | 0.00 | 90 | 1016.3 |
| 20260904100537 | 76 | 112 | 0.0 | 1.0 | 0.00 | 0.00 | 0.00 | 90 | 1016.3 |
| 20260904100329 | 77 | 112 | 0.0 | 0.0 | 0.00 | 0.00 | 0.00 | 90 | 1017.3 |
| 20260904100037 | 76 | 112 | 0.0 | 0.0 | 0.00 | 0.00 | 0.00 | 90 | 1016.3 |
| 20260904095537 | 76 | 113 | 0.0 | 0.0 | 0.00 | 0.00 | 0.00 | 90 | 1016.2 |
| 20260904095028 | 77 | 112 | 0.0 | 0.0 | 0.00 | 0.00 | 0.00 | 90 | 1016.3 |
| 20260904094823 | 77 | 113 | 0.0 | 0.0 | 0.00 | 0.00 | 0.00 | 90 | 1017.1 |
| 20260904094534 | 77 | 112 | 0.0 | 0.0 | 0.00 | 0.00 | 0.00 | 90 | 1016.1 |
| 20260904094021 | 77 | 112 | 0.0 | 0.0 | 0.00 | 0.00 | 0.00 | 89 | 1016.3 |
| 20260904093521 | 77 | 112 | 0.0 | 2.0 | 0.00 | 0.00 | 0.00 | 89 | 1016.2 |
| 20260904093345 | 77 | 112 | 0.0 | 2.0 | 0.00 | 0.00 | 0.00 | 89 | 1017.1 |
| 20260904093054 | 77 | 112 | 0.0 | 2.0 | 0.00 | 0.00 | 0.00 | 89 | 1016.1 |
| 20260904092551 | 77 | 112 | 0.0 | 1.0 | 0.00 | 0.00 | 0.00 | 89 | 1016.1 |
| 20260904092051 | 77 | 112 | 0.0 | 1.0 | 0.00 | 0.00 | 0.00 | 89 | 1016.2 |
| 20260904091815 | 77 | 112 | 0.0 | 1.0 | 0.00 | 0.00 | 0.00 | 89 | 1017.2 |
| 20260904091545 | 77 | 112 | 0.0 | 2.0 | 0.00 | 0.00 | 0.00 | 89 | 1016.1 |
| 20260904091046 | 77 | 112 | 0.0 | 2.0 | 0.00 | 0.00 | 0.00 | 89 | 1016.0 |
| 20260904090535 | 77 | 112 | 0.0 | 2.0 | 0.00 | 0.00 | 0.00 | 89 | 1015.9 |
| 20260904090331 | 77 | 112 | 1.0 | 2.0 | 0.00 | 0.00 | 0.00 | 89 | 1016.8 |
| 20260904090045 | 77 | 112 | 0.0 | 2.0 | 0.00 | 0.00 | 0.00 | 89 | 1015.8 |
| 20260904085527 | 77 | 107 | 0.0 | 3.0 | 0.00 | 0.00 | 0.00 | 89 | 1015.8 |
| 20260904085024 | 77 | 144 | 0.0 | 3.0 | 0.00 | 0.00 | 0.00 | 89 | 1015.8 |
| 20260904084843 | 78 | 157 | 2.0 | 3.0 | 0.00 | 0.00 | 0.00 | 89 | 1016.9 |
| 20260904084559 | 77 | 97 | 0.0 | 3.0 | 0.00 | 0.00 | 0.00 | 89 | 1015.8 |
| 20260904084053 | 77 | 150 | 0.0 | 4.0 | 0.00 | 0.00 | 0.00 | 89 | 1015.9 |
| 20260904083545 | 77 | 124 | 1.0 | 4.0 | 0.00 | 0.00 | 0.00 | 89 | 1015.8 |
| 20260904083339 | 78 | 163 | 1.0 | 4.0 | 0.00 | 0.00 | 0.00 | 89 | 1016.8 |
| 20260904083030 | 77 | 119 | 2.0 | 5.0 | 0.00 | 0.00 | 0.00 | 89 | 1015.9 |
| 20260904082518 | 77 | 166 | 1.0 | 5.0 | 0.00 | 0.00 | 0.00 | 89 | 1016.0 |
| 20260904082014 | 77 | 130 | 1.0 | 8.0 | 0.00 | 0.00 | 0.00 | 89 | 1016.0 |
| 20260904081830 | 78 | 155 | 2.0 | 8.0 | 0.00 | 0.00 | 0.00 | 89 | 1016.9 |
| 20260904081510 | 77 | 101 | 2.0 | 5.0 | 0.00 | 0.00 | 0.00 | 89 | 1016.1 |
| 20260904081005 | 77 | 141 | 1.0 | 4.0 | 0.00 | 0.00 | 0.00 | 89 | 1016.0 |
| 20260904080557 | 77 | 112 | 1.0 | 4.0 | 0.00 | 0.00 | 0.00 | 89 | 1016.0 |
| 20260904080322 | 78 | 147 | 2.0 | 6.0 | 0.00 | 0.00 | 0.00 | 89 | 1016.9 |
| 20260904080051 | 77 | 140 | 0.0 | 6.0 | 0.00 | 0.00 | 0.00 | 89 | 1016.0 |
| 20260904075549 | 77 | 119 | 2.0 | 6.0 | 0.00 | 0.00 | 0.00 | 89 | 1015.9 |
| 20260904075045 | 77 | 90 | 2.0 | 6.0 | 0.00 | 0.00 | 0.00 | 89 | 1015.9 |
| 20260904074815 | 77 | 109 | 1.0 | 6.0 | 0.00 | 0.00 | 0.00 | 89 | 1017.0 |
| 20260904074541 | 77 | 144 | 2.0 | 6.0 | 0.00 | 0.00 | 0.00 | 89 | 1016.0 |
| 20260904074039 | 77 | 113 | 2.0 | 5.0 | 0.00 | 0.00 | 0.00 | 89 | 1015.9 |
| 20260904073533 | 77 | 92 | 3.0 | 7.0 | 0.00 | 0.00 | 0.00 | 89 | 1016.0 |
| 20260904073329 | 77 | 145 | 2.0 | 7.0 | 0.00 | 0.00 | 0.00 | 89 | 1016.9 |
| 20260904073036 | 77 | 126 | 3.0 | 7.0 | 0.00 | 0.00 | 0.00 | 89 | 1016.0 |
| 20260904072528 | 77 | 111 | 1.0 | 6.0 | 0.00 | 0.00 | 0.00 | 89 | 1016.1 |
| 20260904072030 | 77 | 161 | 1.0 | 6.0 | 0.00 | 0.00 | 0.00 | 89 | 1016.0 |
| 20260904071819 | 77 | 134 | 3.0 | 7.0 | 0.00 | 0.00 | 0.00 | 89 | 1017.0 |
| 20260904071515 | 77 | 162 | 1.0 | 7.0 | 0.00 | 0.00 | 0.00 | 89 | 1016.1 |
| 20260904071011 | 77 | 109 | 1.0 | 8.0 | 0.00 | 0.00 | 0.00 | 89 | 1016.1 |
| 20260904070559 | 77 | 107 | 3.0 | 8.0 | 0.00 | 0.00 | 0.00 | 89 | 1016.1 |
| 20260904070509 | 77 | 135 | 3.0 | 8.0 | 0.00 | 0.00 | 0.00 | 89 | 1016.1 |
| 20260904070351 | 77 | 116 | 3.0 | 6.0 | 0.00 | 0.00 | 0.00 | 89 | 1017.1 |
| 20260904070106 | 77 | 141 | 2.0 | 6.0 | 0.00 | 0.00 | 0.00 | 89 | 1016.2 |
| 20260904065536 | 77 | 107 | 2.0 | 8.0 | 0.00 | 0.00 | 0.00 | 89 | 1016.1 |
| 20260904065031 | 77 | 149 | 1.0 | 8.0 | 0.00 | 0.00 | 0.00 | 89 | 1016.1 |
| 20260904064823 | 77 | 138 | 3.0 | 8.0 | 0.00 | 0.00 | 0.00 | 89 | 1017.0 |
| 20260904064524 | 77 | 174 | 2.0 | 8.0 | 0.00 | 0.00 | 0.00 | 89 | 1016.0 |
| 20260904064021 | 77 | 121 | 2.0 | 7.0 | 0.00 | 0.00 | 0.00 | 88 | 1016.1 |
| 20260904063520 | 77 | 146 | 2.0 | 7.0 | 0.00 | 0.00 | 0.00 | 88 | 1016.1 |
| 20260904063319 | 77 | 162 | 3.0 | 7.0 | 0.00 | 0.00 | 0.00 | 88 | 1017.0 |
| 20260904063015 | 77 | 157 | 2.0 | 4.0 | 0.00 | 0.00 | 0.00 | 88 | 1016.1 |
| 20260904062509 | 77 | 138 | 1.0 | 4.0 | 0.00 | 0.00 | 0.00 | 88 | 1016.0 |
| 20260904062007 | 77 | 185 | 1.0 | 4.0 | 0.00 | 0.00 | 0.00 | 88 | 1016.0 |
| 20260904061829 | 77 | 147 | 2.0 | 6.0 | 0.00 | 0.00 | 0.00 | 87 | 1016.9 |
| 20260904061514 | 77 | 117 | 2.0 | 6.0 | 0.00 | 0.00 | 0.00 | 87 | 1015.8 |
| 20260904061011 | 77 | 126 | 1.0 | 4.0 | 0.00 | 0.00 | 0.00 | 87 | 1016.0 |
| 20260904060515 | 77 | 121 | 0.0 | 4.0 | 0.00 | 0.00 | 0.00 | 87 | 1016.0 |
| 20260904060314 | 77 | 140 | 2.0 | 4.0 | 0.00 | 0.00 | 0.00 | 87 | 1016.9 |
| 20260904060018 | 77 | 135 | 2.0 | 7.0 | 0.00 | 0.00 | 0.00 | 87 | 1016.0 |
| 20260904055528 | 77 | 128 | 1.0 | 7.0 | 0.00 | 0.00 | 0.00 | 87 | 1016.1 |
| 20260904055032 | 77 | 82 | 1.0 | 4.0 | 0.00 | 0.00 | 0.00 | 87 | 1016.1 |
| 20260904054817 | 78 | 140 | 1.0 | 7.0 | 0.00 | 0.00 | 0.00 | 86 | 1017.0 |
| 20260904054542 | 77 | 128 | 1.0 | 7.0 | 0.00 | 0.00 | 0.00 | 86 | 1016.1 |
| 20260904054038 | 77 | 120 | 1.0 | 7.0 | 0.00 | 0.00 | 0.00 | 86 | 1016.1 |
| 20260904053537 | 77 | 126 | 2.0 | 7.0 | 0.00 | 0.00 | 0.00 | 86 | 1016.2 |
| 20260904053319 | 78 | 107 | 4.0 | 7.0 | 0.00 | 0.00 | 0.00 | 86 | 1017.2 |
| 20260904053054 | 77 | 128 | 1.0 | 4.0 | 0.00 | 0.00 | 0.00 | 86 | 1016.2 |
| 20260904052539 | 77 | 103 | 1.0 | 6.0 | 0.00 | 0.00 | 0.00 | 86 | 1016.3 |
| 20260904052039 | 77 | 119 | 2.0 | 6.0 | 0.00 | 0.00 | 0.00 | 85 | 1016.3 |
| 20260904051820 | 78 | 115 | 3.0 | 6.0 | 0.00 | 0.00 | 0.00 | 85 | 1017.3 |
| 20260904051543 | 78 | 125 | 2.0 | 6.0 | 0.00 | 0.00 | 0.00 | 85 | 1016.4 |
| 20260904051047 | 78 | 178 | 0.0 | 6.0 | 0.00 | 0.00 | 0.00 | 85 | 1016.5 |
| 20260904050548 | 78 | 156 | 2.0 | 6.0 | 0.00 | 0.00 | 0.00 | 85 | 1016.5 |
| 20260904050326 | 78 | 110 | 3.0 | 6.0 | 0.00 | 0.00 | 0.00 | 85 | 1017.4 |
| 20260904050054 | 78 | 94 | 2.0 | 6.0 | 0.00 | 0.00 | 0.00 | 85 | 1016.4 |
| 20260904045556 | 78 | 118 | 2.0 | 7.0 | 0.00 | 0.00 | 0.00 | 85 | 1016.3 |
| 20260904045058 | 78 | 110 | 2.0 | 7.0 | 0.00 | 0.00 | 0.00 | 84 | 1016.4 |
| 20260904045004 | 78 | 121 | 2.0 | 7.0 | 0.00 | 0.00 | 0.00 | 84 | 1016.4 |
| 20260904044830 | 78 | 126 | 3.0 | 7.0 | 0.00 | 0.00 | 0.00 | 84 | 1017.4 |
| 20260904044537 | 78 | 98 | 1.0 | 7.0 | 0.00 | 0.00 | 0.00 | 84 | 1016.5 |
| 20260904044044 | 78 | 67 | 1.0 | 5.0 | 0.00 | 0.00 | 0.00 | 84 | 1016.5 |
| 20260904043548 | 78 | 189 | 1.0 | 5.0 | 0.00 | 0.00 | 0.00 | 84 | 1016.5 |
| 20260904043334 | 79 | 118 | 2.0 | 6.0 | 0.00 | 0.00 | 0.00 | 83 | 1017.5 |
| 20260904043055 | 78 | 110 | 1.0 | 7.0 | 0.00 | 0.00 | 0.00 | 83 | 1016.5 |
| 20260904042551 | 78 | 112 | 2.0 | 8.0 | 0.00 | 0.00 | 0.00 | 83 | 1016.6 |
| 20260904042053 | 79 | 134 | 4.0 | 8.0 | 0.00 | 0.00 | 0.00 | 83 | 1016.5 |
| 20260904041836 | 79 | 96 | 3.0 | 6.0 | 0.00 | 0.00 | 0.00 | 83 | 1017.4 |
| 20260904041522 | 79 | 134 | 2.0 | 7.0 | 0.00 | 0.00 | 0.00 | 82 | 1016.3 |
| 20260904041030 | 79 | 63 | 2.0 | 9.0 | 0.00 | 0.00 | 0.00 | 82 | 1016.4 |
| 20260904040524 | 79 | 146 | 4.0 | 9.0 | 0.00 | 0.00 | 0.00 | 82 | 1016.4 |
| 20260904040319 | 79 | 87 | 4.0 | 9.0 | 0.00 | 0.00 | 0.00 | 82 | 1017.4 |
| 20260904040109 | 79 | 117 | 3.0 | 10.0 | 0.00 | 0.00 | 0.00 | 82 | 1016.4 |
| 20260904035553 | 79 | 109 | 3.0 | 10.0 | 0.00 | 0.00 | 0.00 | 81 | 1016.4 |
| 20260904035053 | 79 | 89 | 2.0 | 7.0 | 0.00 | 0.00 | 0.00 | 81 | 1016.5 |
| 20260904034831 | 80 | 112 | 2.0 | 8.0 | 0.00 | 0.00 | 0.00 | 81 | 1017.5 |
| 20260904034549 | 79 | 108 | 1.0 | 9.0 | 0.00 | 0.00 | 0.00 | 81 | 1016.6 |
| 20260904034045 | 79 | 136 | 5.0 | 10.0 | 0.00 | 0.00 | 0.00 | 81 | 1016.5 |
| 20260904033542 | 79 | 117 | 4.0 | 11.0 | 0.00 | 0.00 | 0.00 | 81 | 1016.6 |
| 20260904033325 | 80 | 126 | 5.0 | 11.0 | 0.00 | 0.00 | 0.00 | 80 | 1017.4 |
| 20260904033035 | 80 | 125 | 2.0 | 7.0 | 0.00 | 0.00 | 0.00 | 80 | 1016.5 |
| 20260904032530 | 80 | 150 | 2.0 | 11.0 | 0.00 | 0.00 | 0.00 | 80 | 1016.5 |
| 20260904032033 | 80 | 117 | 3.0 | 11.0 | 0.00 | 0.00 | 0.00 | 80 | 1016.5 |
| 20260904031817 | 80 | 117 | 4.0 | 11.0 | 0.00 | 0.00 | 0.00 | 80 | 1017.4 |
| 20260904031531 | 80 | 107 | 4.0 | 7.0 | 0.00 | 0.00 | 0.00 | 80 | 1016.5 |
| 20260904031021 | 80 | 99 | 2.0 | 8.0 | 0.00 | 0.00 | 0.00 | 79 | 1016.5 |
| 20260904030517 | 80 | 128 | 3.0 | 8.0 | 0.00 | 0.00 | 0.00 | 79 | 1016.5 |
| 20260904030332 | 81 | 91 | 3.0 | 8.0 | 0.00 | 0.00 | 0.00 | 79 | 1017.5 |
| 20260904030013 | 80 | 161 | 3.0 | 8.0 | 0.00 | 0.00 | 0.00 | 79 | 1016.4 |
| 20260904025511 | 80 | 116 | 2.0 | 7.0 | 0.00 | 0.00 | 0.00 | 79 | 1016.3 |
| 20260904025009 | 80 | 45 | 2.0 | 7.0 | 0.00 | 0.00 | 0.00 | 79 | 1016.2 |
| 20260904024824 | 81 | 111 | 2.0 | 8.0 | 0.00 | 0.00 | 0.00 | 79 | 1017.2 |
| 20260904024505 | 80 | 119 | 1.0 | 8.0 | 0.00 | 0.00 | 0.00 | 78 | 1016.1 |
| 20260904024100 | 80 | 98 | 3.0 | 8.0 | 0.00 | 0.00 | 0.00 | 78 | 1016.2 |
| 20260904024001 | 80 | 76 | 2.0 | 8.0 | 0.00 | 0.00 | 0.00 | 78 | 1016.1 |
| 20260904023556 | 80 | 124 | 1.0 | 6.0 | 0.00 | 0.00 | 0.00 | 78 | 1016.1 |
| 20260904023337 | 81 | 68 | 2.0 | 6.0 | 0.00 | 0.00 | 0.00 | 78 | 1017.1 |
| 20260904023025 | 80 | 126 | 2.0 | 6.0 | 0.00 | 0.00 | 0.00 | 78 | 1016.1 |
| 20260904022519 | 81 | 109 | 1.0 | 4.0 | 0.00 | 0.00 | 0.00 | 79 | 1016.1 |
| 20260904022015 | 81 | 126 | 0.0 | 3.0 | 0.00 | 0.00 | 0.00 | 79 | 1016.2 |
| 20260904021825 | 81 | 60 | 1.0 | 3.0 | 0.00 | 0.00 | 0.00 | 79 | 1017.1 |
| 20260904021518 | 81 | 60 | 0.0 | 3.0 | 0.00 | 0.00 | 0.00 | 79 | 1016.2 |
| 20260904021009 | 81 | 50 | 1.0 | 3.0 | 0.00 | 0.00 | 0.00 | 78 | 1016.1 |
| 20260904020503 | 81 | 88 | 0.0 | 4.0 | 0.00 | 0.00 | 0.00 | 78 | 1016.1 |
| 20260904020322 | 81 | 43 | 0.0 | 4.0 | 0.00 | 0.00 | 0.00 | 78 | 1017.1 |
| 20260904020057 | 81 | 38 | 1.0 | 4.0 | 0.00 | 0.00 | 0.00 | 78 | 1016.1 |
| 20260904015554 | 81 | 57 | 1.0 | 3.0 | 0.00 | 0.00 | 0.00 | 78 | 1016.0 |
| 20260904015051 | 81 | 74 | 1.0 | 5.0 | 0.00 | 0.00 | 0.00 | 78 | 1016.0 |
| 20260904014814 | 82 | 32 | 1.0 | 5.0 | 0.00 | 0.00 | 0.00 | 78 | 1016.9 |
| 20260904014552 | 81 | 115 | 2.0 | 5.0 | 0.00 | 0.00 | 0.00 | 78 | 1016.0 |
| 20260904014043 | 82 | 105 | 3.0 | 9.0 | 0.00 | 0.00 | 0.00 | 77 | 1016.0 |
| 20260904013535 | 82 | 74 | 4.0 | 9.0 | 0.00 | 0.00 | 0.00 | 77 | 1016.0 |
| 20260904013328 | 82 | 112 | 4.0 | 9.0 | 0.00 | 0.00 | 0.00 | 77 | 1016.9 |
| 20260904013031 | 82 | 86 | 3.0 | 7.0 | 0.00 | 0.00 | 0.00 | 77 | 1015.8 |
| 20260904012529 | 82 | 105 | 2.0 | 7.0 | 0.00 | 0.00 | 0.00 | 77 | 1015.8 |
| 20260904012024 | 82 | 89 | 2.0 | 7.0 | 0.00 | 0.00 | 0.00 | 77 | 1015.8 |
| 20260904011841 | 83 | 117 | 3.0 | 7.0 | 0.00 | 0.00 | 0.00 | 77 | 1016.9 |
| 20260904011557 | 82 | 66 | 2.0 | 7.0 | 0.00 | 0.00 | 0.00 | 76 | 1015.9 |
| 20260904011054 | 82 | 127 | 2.0 | 6.0 | 0.00 | 0.00 | 0.00 | 76 | 1015.9 |
| 20260904010551 | 83 | 65 | 2.0 | 6.0 | 0.00 | 0.00 | 0.00 | 75 | 1015.8 |
| 20260904010314 | 83 | 107 | 3.0 | 6.0 | 0.00 | 0.00 | 0.00 | 75 | 1016.8 |
| 20260904010049 | 83 | 65 | 2.0 | 9.0 | 0.00 | 0.00 | 0.00 | 75 | 1015.8 |
| 20260904005544 | 83 | 175 | 3.0 | 9.0 | 0.00 | 0.00 | 0.00 | 75 | 1015.8 |
| 20260904005042 | 83 | 117 | 1.0 | 5.0 | 0.00 | 0.00 | 0.00 | 75 | 1015.7 |
| 20260904004825 | 84 | 137 | 3.0 | 5.0 | 0.00 | 0.00 | 0.00 | 75 | 1016.7 |
| 20260904004535 | 84 | 128 | 1.0 | 6.0 | 0.00 | 0.00 | 0.00 | 75 | 1015.6 |
| 20260904004035 | 84 | 142 | 2.0 | 6.0 | 0.00 | 0.00 | 0.00 | 75 | 1015.7 |
| 20260904003528 | 84 | 170 | 2.0 | 5.0 | 0.00 | 0.00 | 0.00 | 73 | 1015.7 |
| 20260904003321 | 85 | 165 | 2.0 | 6.0 | 0.00 | 0.00 | 0.00 | 73 | 1016.7 |
| 20260904003022 | 85 | 151 | 2.0 | 6.0 | 0.00 | 0.00 | 0.00 | 72 | 1015.7 |
| 20260904002519 | 85 | 155 | 2.0 | 7.0 | 0.00 | 0.00 | 0.00 | 71 | 1015.8 |
| 20260904002013 | 85 | 130 | 2.0 | 7.0 | 0.00 | 0.00 | 0.00 | 71 | 1015.7 |
| 20260904001851 | 85 | 161 | 2.0 | 7.0 | 0.00 | 0.00 | 0.00 | 71 | 1016.7 |
| 20260904001549 | 85 | 116 | 3.0 | 7.0 | 0.00 | 0.00 | 0.00 | 70 | 1015.7 |
| 20260904001042 | 85 | 162 | 1.0 | 7.0 | 0.00 | 0.00 | 0.00 | 70 | 1015.6 |
| 20260904000540 | 85 | 163 | 3.0 | 7.0 | 0.00 | 0.00 | 0.00 | 70 | 1015.7 |
| 20260904000351 | 86 | 147 | 4.0 | 7.0 | 0.00 | 0.00 | 0.00 | 69 | 1016.7 |
| 20260904000015 | 86 | 142 | 0.0 | 5.0 | 0.00 | 0.00 | 0.00 | 69 | 1015.6 |
| 20260903235516 | 86 | 163 | 3.0 | 6.0 | 0.00 | 0.00 | 0.00 | 69 | 1015.5 |
| 20260903235008 | 87 | 167 | 3.0 | 8.0 | 0.00 | 0.00 | 0.00 | 68 | 1015.4 |
| 20260903234825 | 87 | 134 | 3.0 | 8.0 | 0.00 | 0.00 | 0.00 | 67 | 1016.4 |
| 20260903234504 | 87 | 171 | 3.0 | 8.0 | 0.00 | 0.00 | 0.00 | 67 | 1015.4 |
| 20260903234101 | 88 | 168 | 3.0 | 7.0 | 0.00 | 0.00 | 0.00 | 65 | 1015.3 |
| 20260903233555 | 89 | 142 | 3.0 | 7.0 | 0.00 | 0.00 | 0.00 | 64 | 1015.2 |
| 20260903233320 | 89 | 115 | 2.0 | 9.0 | 0.00 | 0.00 | 0.00 | 63 | 1016.3 |
| 20260903233050 | 89 | 102 | 1.0 | 9.0 | 0.00 | 0.00 | 0.00 | 62 | 1015.1 |
| 20260903232548 | 89 | 137 | 4.0 | 9.0 | 0.00 | 0.00 | 0.00 | 61 | 1015.3 |
| 20260903232048 | 89 | 173 | 2.0 | 6.0 | 0.00 | 0.00 | 0.00 | 59 | 1015.2 |
| 20260903231830 | 90 | 126 | 2.0 | 6.0 | 0.00 | 0.00 | 0.00 | 59 | 1016.2 |
| 20260903231545 | 90 | 111 | 1.0 | 3.0 | 0.00 | 0.00 | 0.00 | 58 | 1015.2 |
| 20260903231038 | 90 | 36 | 0.0 | 3.0 | 0.00 | 0.00 | 0.00 | 58 | 1015.2 |
| 20260903230534 | 90 | 173 | 1.0 | 2.0 | 0.00 | 0.00 | 0.00 | 58 | 1015.1 |
| 20260903230350 | 91 | 111 | 1.0 | 2.0 | 0.00 | 0.00 | 0.00 | 58 | 1016.1 |
| 20260903230008 | 90 | 76 | 0.0 | 4.0 | 0.00 | 0.00 | 0.00 | 57 | 1015.1 |
| 20260903225505 | 90 | 103 | 2.0 | 4.0 | 0.00 | 0.00 | 0.00 | 56 | 1015.1 |
| 20260903225102 | 90 | 111 | 1.0 | 4.0 | 0.00 | 0.00 | 0.00 | 57 | 1015.1 |
| 20260903224830 | 91 | 63 | 1.0 | 4.0 | 0.00 | 0.00 | 0.00 | 56 | 1016.0 |
| 20260903224556 | 91 | 59 | 1.0 | 6.0 | 0.00 | 0.00 | 0.00 | 57 | 1015.0 |
| 20260903224052 | 90 | 61 | 1.0 | 8.0 | 0.00 | 0.00 | 0.00 | 57 | 1015.0 |
| 20260903223548 | 90 | 67 | 2.0 | 8.0 | 0.00 | 0.00 | 0.00 | 57 | 1014.9 |
| 20260903223332 | 91 | 111 | 2.0 | 7.0 | 0.00 | 0.00 | 0.00 | 57 | 1015.9 |
| 20260903223038 | 90 | 55 | 2.0 | 8.0 | 0.00 | 0.00 | 0.00 | 57 | 1014.9 |
| 20260903222536 | 90 | 58 | 2.0 | 8.0 | 0.00 | 0.00 | 0.00 | 56 | 1014.9 |
| 20260903222037 | 90 | 78 | 2.0 | 8.0 | 0.00 | 0.00 | 0.00 | 56 | 1014.8 |
| 20260903221830 | 91 | 17 | 2.0 | 8.0 | 0.00 | 0.00 | 0.00 | 56 | 1015.9 |
| 20260903221531 | 91 | 84 | 1.0 | 8.0 | 0.00 | 0.00 | 0.00 | 56 | 1014.9 |
| 20260903221026 | 91 | 46 | 2.0 | 6.0 | 0.00 | 0.00 | 0.00 | 54 | 1014.8 |
| 20260903220524 | 91 | 32 | 1.0 | 6.0 | 0.00 | 0.00 | 0.00 | 56 | 1014.8 |
| 20260903220333 | 92 | 38 | 2.0 | 6.0 | 0.00 | 0.00 | 0.00 | 54 | 1015.9 |
| 20260903220026 | 92 | 44 | 1.0 | 5.0 | 0.00 | 0.00 | 0.00 | 54 | 1014.8 |
| 20260903215523 | 92 | 32 | 1.0 | 6.0 | 0.00 | 0.00 | 0.00 | 54 | 1015.0 |
| 20260903215016 | 92 | 78 | 2.0 | 6.0 | 0.00 | 0.00 | 0.00 | 53 | 1014.9 |
| 20260903214813 | 92 | 57 | 2.0 | 6.0 | 0.00 | 0.00 | 0.00 | 55 | 1015.9 |
| 20260903214519 | 91 | 148 | 1.0 | 7.0 | 0.00 | 0.00 | 0.00 | 56 | 1015.0 |
| 20260903214010 | 91 | 86 | 2.0 | 7.0 | 0.00 | 0.00 | 0.00 | 55 | 1015.0 |
| 20260903213510 | 91 | 360 | 1.0 | 7.0 | 0.00 | 0.00 | 0.00 | 55 | 1014.9 |
| 20260903213314 | 92 | 46 | 2.0 | 6.0 | 0.00 | 0.00 | 0.00 | 54 | 1015.9 |
| 20260903213006 | 92 | 60 | 3.0 | 8.0 | 0.00 | 0.00 | 0.00 | 54 | 1014.9 |
| 20260903212558 | 92 | 38 | 1.0 | 8.0 | 0.00 | 0.00 | 0.00 | 54 | 1014.9 |
| 20260903212057 | 92 | 53 | 1.0 | 7.0 | 0.00 | 0.00 | 0.00 | 55 | 1015.0 |
| 20260903211816 | 92 | 5 | 3.0 | 7.0 | 0.00 | 0.00 | 0.00 | 53 | 1016.0 |
| 20260903211556 | 92 | 181 | 2.0 | 8.0 | 0.00 | 0.00 | 0.00 | 53 | 1015.0 |
| 20260903211046 | 93 | 109 | 3.0 | 9.0 | 0.00 | 0.00 | 0.00 | 52 | 1015.1 |
| 20260903210542 | 93 | 81 | 3.0 | 9.0 | 0.00 | 0.00 | 0.00 | 52 | 1015.1 |
| 20260903210318 | 93 | 71 | 3.0 | 8.0 | 0.00 | 0.00 | 0.00 | 52 | 1016.1 |
| 20260903210044 | 93 | 145 | 2.0 | 8.0 | 0.00 | 0.00 | 0.00 | 52 | 1015.0 |
| 20260903205534 | 92 | 316 | 0.0 | 8.0 | 0.00 | 0.00 | 0.00 | 54 | 1015.0 |
| 20260903205028 | 92 | 28 | 3.0 | 8.0 | 0.00 | 0.00 | 0.00 | 54 | 1015.1 |
| 20260903204839 | 92 | 55 | 4.0 | 8.0 | 0.00 | 0.00 | 0.00 | 53 | 1016.1 |
| 20260903204603 | 92 | 26 | 2.0 | 7.0 | 0.00 | 0.00 | 0.00 | 52 | 1015.0 |
| 20260903204502 | 92 | 19 | 2.0 | 7.0 | 0.00 | 0.00 | 0.00 | 52 | 1015.0 |
| 20260903204057 | 92 | 44 | 3.0 | 7.0 | 0.00 | 0.00 | 0.00 | 51 | 1015.1 |
| 20260903203554 | 92 | 348 | 1.0 | 6.0 | 0.00 | 0.00 | 0.00 | 54 | 1015.3 |
| 20260903203321 | 93 | 16 | 3.0 | 6.0 | 0.00 | 0.00 | 0.00 | 53 | 1016.3 |
| 20260903203050 | 93 | 59 | 2.0 | 6.0 | 0.00 | 0.00 | 0.00 | 53 | 1015.2 |
| 20260903202549 | 93 | 37 | 2.0 | 7.0 | 0.00 | 0.00 | 0.00 | 52 | 1015.2 |
| 20260903202046 | 93 | 125 | 1.0 | 7.0 | 0.00 | 0.00 | 0.00 | 51 | 1015.3 |
| 20260903201821 | 93 | 310 | 4.0 | 7.0 | 0.00 | 0.00 | 0.00 | 51 | 1016.3 |
| 20260903201547 | 92 | 110 | 2.0 | 10.0 | 0.00 | 0.00 | 0.00 | 52 | 1015.3 |
| 20260903201043 | 92 | 70 | 2.0 | 10.0 | 0.00 | 0.00 | 0.00 | 53 | 1015.3 |
| 20260903200540 | 92 | 147 | 3.0 | 7.0 | 0.00 | 0.00 | 0.00 | 53 | 1015.3 |
| 20260903200322 | 93 | 101 | 3.0 | 8.0 | 0.00 | 0.00 | 0.00 | 52 | 1016.3 |
| 20260903200030 | 92 | 84 | 2.0 | 9.0 | 0.00 | 0.00 | 0.00 | 52 | 1015.4 |
| 20260903195531 | 91 | 161 | 2.0 | 9.0 | 0.00 | 0.00 | 0.00 | 55 | 1015.6 |
| 20260903195029 | 91 | 36 | 2.0 | 10.0 | 0.00 | 0.00 | 0.00 | 54 | 1015.8 |
| 20260903194822 | 92 | 84 | 2.0 | 10.0 | 0.00 | 0.00 | 0.00 | 53 | 1016.8 |
| 20260903194526 | 92 | 99 | 2.0 | 9.0 | 0.00 | 0.00 | 0.00 | 52 | 1016.0 |
| 20260903194023 | 92 | 75 | 3.0 | 10.0 | 0.00 | 0.00 | 0.00 | 53 | 1015.9 |
| 20260903193520 | 92 | 67 | 3.0 | 11.0 | 0.00 | 0.00 | 0.00 | 51 | 1016.0 |
| 20260903193321 | 93 | 155 | 5.0 | 11.0 | 0.00 | 0.00 | 0.00 | 52 | 1017.1 |
| 20260903193016 | 92 | 116 | 6.0 | 11.0 | 0.00 | 0.00 | 0.00 | 53 | 1016.2 |
| 20260903192518 | 92 | 118 | 4.0 | 10.0 | 0.00 | 0.00 | 0.00 | 51 | 1016.2 |
| 20260903192011 | 92 | 83 | 2.0 | 9.0 | 0.00 | 0.00 | 0.00 | 53 | 1016.2 |
| 20260903191823 | 92 | 60 | 3.0 | 9.0 | 0.00 | 0.00 | 0.00 | 54 | 1017.2 |
| 20260903191508 | 91 | 123 | 3.0 | 8.0 | 0.00 | 0.00 | 0.00 | 52 | 1016.2 |
| 20260903191006 | 91 | 100 | 4.0 | 8.0 | 0.00 | 0.00 | 0.00 | 53 | 1016.4 |
| 20260903190511 | 90 | 93 | 2.0 | 12.0 | 0.00 | 0.00 | 0.00 | 53 | 1016.4 |
| 20260903190325 | 91 | 134 | 3.0 | 12.0 | 0.00 | 0.00 | 0.00 | 55 | 1017.4 |
| 20260903190058 | 91 | 123 | 5.0 | 12.0 | 0.00 | 0.00 | 0.00 | 52 | 1016.4 |
| 20260903185556 | 91 | 115 | 2.0 | 10.0 | 0.00 | 0.00 | 0.00 | 55 | 1016.3 |
| 20260903185054 | 91 | 22 | 3.0 | 10.0 | 0.00 | 0.00 | 0.00 | 54 | 1016.4 |
| 20260903184816 | 91 | 91 | 4.0 | 10.0 | 0.00 | 0.00 | 0.00 | 55 | 1017.4 |
| 20260903184550 | 91 | 103 | 2.0 | 7.0 | 0.00 | 0.00 | 0.00 | 55 | 1016.5 |
| 20260903184050 | 91 | 99 | 2.0 | 8.0 | 0.00 | 0.00 | 0.00 | 56 | 1016.5 |
| 20260903183541 | 91 | 57 | 3.0 | 8.0 | 0.00 | 0.00 | 0.00 | 54 | 1016.6 |
| 20260903183337 | 91 | 158 | 4.0 | 9.0 | 0.00 | 0.00 | 0.00 | 56 | 1017.6 |
| 20260903183016 | 91 | 78 | 3.0 | 9.0 | 0.00 | 0.00 | 0.00 | 57 | 1016.7 |
| 20260903182514 | 90 | 137 | 4.0 | 8.0 | 0.00 | 0.00 | 0.00 | 56 | 1016.8 |
| 20260903182013 | 90 | 116 | 4.0 | 12.0 | 0.00 | 0.00 | 0.00 | 57 | 1016.9 |
| 20260903181815 | 91 | 96 | 4.0 | 12.0 | 0.00 | 0.00 | 0.00 | 54 | 1017.9 |
| 20260903181508 | 90 | 138 | 3.0 | 12.0 | 0.00 | 0.00 | 0.00 | 57 | 1016.9 |
| 20260903181009 | 91 | 63 | 3.0 | 12.0 | 0.00 | 0.00 | 0.00 | 55 | 1017.0 |
| 20260903180517 | 91 | 83 | 4.0 | 12.0 | 0.00 | 0.00 | 0.00 | 54 | 1017.0 |
| 20260903180337 | 92 | 93 | 6.0 | 12.0 | 0.00 | 0.00 | 0.00 | 53 | 1018.1 |
| 20260903180050 | 92 | 146 | 6.0 | 12.0 | 0.00 | 0.00 | 0.00 | 54 | 1017.1 |
| 20260903175549 | 91 | 109 | 4.0 | 14.0 | 0.00 | 0.00 | 0.00 | 54 | 1017.1 |
| 20260903175052 | 91 | 119 | 6.0 | 14.0 | 0.00 | 0.00 | 0.00 | 54 | 1017.1 |
| 20260903174818 | 91 | 121 | 3.0 | 11.0 | 0.00 | 0.00 | 0.00 | 57 | 1018.1 |
| 20260903174550 | 90 | 82 | 4.0 | 11.0 | 0.00 | 0.00 | 0.00 | 58 | 1017.2 |
| 20260903174050 | 90 | 155 | 5.0 | 12.0 | 0.00 | 0.00 | 0.00 | 57 | 1017.1 |
| 20260903173545 | 89 | 74 | 5.0 | 12.0 | 0.00 | 0.00 | 0.00 | 59 | 1017.3 |
| 20260903173321 | 90 | 118 | 2.0 | 12.0 | 0.00 | 0.00 | 0.00 | 58 | 1018.2 |
| 20260903173043 | 89 | 360 | 3.0 | 12.0 | 0.00 | 0.00 | 0.00 | 59 | 1017.2 |
| 20260903172541 | 89 | 121 | 7.0 | 12.0 | 0.00 | 0.00 | 0.00 | 61 | 1017.3 |
| 20260903172038 | 89 | 124 | 3.0 | 10.0 | 0.00 | 0.00 | 0.00 | 59 | 1017.4 |
| 20260903171819 | 89 | 161 | 4.0 | 10.0 | 0.00 | 0.00 | 0.00 | 60 | 1018.3 |
| 20260903171536 | 88 | 80 | 5.0 | 10.0 | 0.00 | 0.00 | 0.00 | 60 | 1017.4 |
| 20260903171124 | 88 | 141 | 4.0 | 10.0 | 0.00 | 0.00 | 0.00 | 60 | 1017.4 |
| 20260903170524 | 88 | 90 | 3.0 | 9.0 | 0.00 | 0.00 | 0.00 | 65 | 1017.4 |
| 20260903170352 | 88 | 113 | 4.0 | 9.0 | 0.00 | 0.00 | 0.00 | 63 | 1018.4 |
| 20260903170105 | 88 | 53 | 3.0 | 9.0 | 0.00 | 0.00 | 0.00 | 62 | 1017.5 |
| 20260903165555 | 88 | 61 | 4.0 | 6.0 | 0.00 | 0.00 | 0.00 | 62 | 1017.6 |
| 20260903165056 | 88 | 141 | 2.0 | 9.0 | 0.00 | 0.00 | 0.00 | 64 | 1017.6 |
| 20260903164829 | 89 | 80 | 4.0 | 9.0 | 0.00 | 0.00 | 0.00 | 64 | 1018.7 |
| 20260903164550 | 88 | 195 | 3.0 | 9.0 | 0.00 | 0.00 | 0.00 | 64 | 1017.6 |
| 20260903164047 | 88 | 21 | 2.0 | 8.0 | 0.00 | 0.00 | 0.00 | 64 | 1017.8 |
| 20260903163538 | 87 | 103 | 3.0 | 9.0 | 0.00 | 0.00 | 0.00 | 67 | 1017.9 |
| 20260903162058 | 88 | 59 | 2.0 | 9.0 | 0.00 | 0.00 | 0.00 | 63 | 1018.0 |
| 20260903161827 | 89 | 38 | 6.0 | 9.0 | 0.00 | 0.00 | 0.00 | 64 | 1018.9 |
| 20260903161556 | 88 | 133 | 2.0 | 8.0 | 0.00 | 0.00 | 0.00 | 63 | 1018.0 |
| 20260903161055 | 87 | 57 | 3.0 | 9.0 | 0.00 | 0.00 | 0.00 | 64 | 1018.1 |
| 20260903160555 | 87 | 147 | 3.0 | 11.0 | 0.00 | 0.00 | 0.00 | 66 | 1018.2 |